Regional Weather Roundup
Issued by NWS

Home | Current Version | Previous Version | Graphics & Text | Print | Product List | Glossary On
Versions: 1 2 3 4 5 6 7 8 9 10 11 12 13 14 15 16 17 18 19 20 21 22 23 24 25 26 27 28 29 30 31 32 33 34 35 36 37 38 39 40 41 42 43 44 45 46 47 48 49 50
000
ASUS45 KBOU 190207
RWRCO

WEATHER ROUNDUP FOR COLORADO
NATIONAL WEATHER SERVICE DENVER/BOULDER CO
700 PM MST THU DEC 18 2014

NOTE: "FAIR" INDICATES FEW OR NO CLOUDS BELOW 12000 FEET WITH NO
SIGNIFICANT WEATHER AND/OR OBSTRUCTIONS TO VISIBILITY.

COZ001>005-013-030-031-190300-
...NORTHWEST COLORADO...

CITY           SKY/WX    TMP DP  RH WIND       PRES   REMARKS
CRAIG          FOG       12  10  92 CALM      30.16R VSB 1
HAYDEN         MOCLDY    21  19  93 CALM      30.14R
MEEKER         FOG       14  10  84 CALM      30.15R VSB 1/4
MOUNT WERNER   NOT AVBL
STEAMBOAT SPGS MOCLDY    22  20  93 CALM      30.14R
WALDEN         MOCLDY    10   7  85 E3        30.10R
$$

COZ006>008-011-190300-
...WEST CENTRAL VALLEYS...

CITY           SKY/WX    TMP DP  RH WIND       PRES   REMARKS
GRAND JUNCTION PTCLDY    35  30  82 CALM      30.16R
MONTROSE       CLOUDY    33  31  92 S3        30.17R
EAGLE          FLURRIES  30  28  93 CALM      30.15R
RIFLE          CLOUDY    33  30  88 CALM      30.15R
DELTA          MOCLDY    35  32  88 N5        30.17R WCI  31
NUCLA          CLOUDY    32  32 100 SE3       30.19R
$$

COZ017>023-064>068-190300-
...SOUTHWEST COLORADO...

CITY           SKY/WX    TMP DP  RH WIND       PRES   REMARKS
DURANGO        PTCLDY    27  24  89 CALM      30.11R
CORTEZ         PTCLDY    29  26  89 E3        30.14R
PAGOSA SPRINGS MOCLDY    24  23  96 CALM      30.11R
TELLURIDE      CLOUDY    23  21  93 CALM      30.14R
WOLF CREEK PAS PTCLDY    10   9  92 MISG      30.07R
$$

COZ009-010-012-014-032>034-037-058>063-190300-
...CENTRAL COLORADO...

CITY           SKY/WX    TMP DP  RH WIND       PRES   REMARKS
ASPEN          CLOUDY    26  23  88 SW3       30.10S
BUENA VISTA    PTCLDY    25  19  78 NW6       30.07S WCI  18
COPPER MTN     MOCLDY    16   9  73 W16       30.06S WCI   0
BERTHOUD PASS  CLOUDY     9   3  78 MISG      30.05S
COTTONWOOD PAS PTCLDY    27  16  63 W9G17     30.06S WCI  17
GUNNISON       PTCLDY    25  19  80 N3        30.13R
KREMMLING      CLOUDY    18  14  86 CALM      30.14R
LEADVILLE      CLOUDY    14  11  87 N7        30.07R WCI   4
MONARCH PASS   CLOUDY    14  10  85 MISG      30.16R
SALIDA         PTCLDY    32  19  57 SW9       30.15R WCI  24
SUNLIGHT       LGT SNOW N/A N/A N/A CALM      30.11S VSB 3/4
WILKERSON PASS MOCLDY    16  10  79 W7        30.08R WCI   6
$$

COZ069>075-190300-
...SAN LUIS VALLEY/SANGRE DE CRISTO MOUNTAINS...

CITY           SKY/WX    TMP DP  RH WIND       PRES   REMARKS
ALAMOSA        MOCLDY    20  17  88 S7        30.09R WCI  11
LA VETA PASS   CLOUDY    16  14  93 MISG      30.06R
SAGUACHE       PTCLDY    21  19  93 N7        30.09S WCI  13
$$

COZ035-036-038>040-190300-
...NORTHERN COLORADO FRONT RANGE...

CITY           SKY/WX    TMP DP  RH WIND       PRES   REMARKS
DENVER INTL AP MOCLDY    32  27  81 E3        30.05R
DMNS CITY PARK   N/A     33  26  75 N1        30.06R
AURORA         MOCLDY    31  29  93 E5        30.06R WCI  27
FRONT RANGE AP NOT AVBL
ERIE MUNI ARPT   N/A     28  24  84 S3        30.06R
BOULDER MUN AP CLOUDY    36  27  69 CALM      30.06R
CENTENNIAL     MOCLDY    31  27  85 CALM      30.06R
BROOMFIELD     PTCLDY    34  25  69 NW3       30.06R
FORT COLLINS   CLEAR     34  25  69 S3        30.08R
LONGMONT       CLEAR     31  24  77 NW6       30.09R WCI  25
$$

COZ041-046-047-076>085-087-088-190300-
...PIKES PEAK/PALMER DIVIDE AND SOUTHERN FOOTHILLS...

CITY           SKY/WX    TMP DP  RH WIND       PRES   REMARKS
COLO. SPRINGS  CLOUDY    32  23  69 SE8       30.08R WCI  25
A. F. ACADEMY  MOCLDY    32  27  80 SE8       30.07R WCI  25
ELLICOTT       NOT AVBL
FALCON         CLOUDY    27  22  80 CALM      30.08R
FORT CARSON    CLOUDY    32  26  80 SW2       30.07R
LIMON          PTCLDY    26  19  74 SE5       30.08R WCI  20
MONUMENT HILL  PTCLDY    30  27  86 SW12      30.05R WCI  21
TRINIDAD       CLOUDY    33  26  75 NE8       30.05R WCI  26
$$

COZ042>045-048>051-090-091-190300-
...NORTHEAST COLORADO...

CITY           SKY/WX    TMP DP  RH WIND       PRES   REMARKS
GREELEY ARPT   PTCLDY    28  18  64 NE6       30.06R WCI  22
AKRON          PTCLDY    28  23  81 S7        30.07R WCI  21
BURLINGTON     CLOUDY    32  25  75 S5        30.09R WCI  27
WRAY           PTCLDY    24  24 100 W5        30.10R FOG     WCI  18
STERLING       PTCLDY    21  19  93 SW8       30.08R FOG     WCI  12
HOLYOKE        NOT AVBL
FORT MORGAN    PTCLDY    25  18  74 NE6       30.09R WCI  18
$$

COZ086-089-092>099-190300-
...SOUTHEAST COLORADO...

CITY           SKY/WX    TMP DP  RH WIND       PRES   REMARKS
PUEBLO         PTCLDY    32  24  72 NE9       30.07R WCI  24
LA JUNTA       MOCLDY    32  28  85 CALM      30.08R
LAMAR          PTCLDY    29  27  92 E6        30.08R WCI  23
SPRINGFIELD      N/A     25  23  92 SW7       30.09R WCI  17
$$



USA.gov is the U.S. government's official web portal to all federal, state and local government web resources and services.